This is the latest recevied weather packets stored in our database for station/object KE8WAY. If no packets are shown the sender has not sent any weather packets the latest 10 day(s).
| Time | Temp. | Humidity | Pressure | Rain* | Wind** | Luminosity | Snow |
|---|---|---|---|---|---|---|---|
| 1777816885 | 10° C | 56% | 1014.8 hPa | 0 mm | - | 565 W/m² | - |
| 1777816582 | 10° C | 54% | 1014.6 hPa | 0 mm | - | 533 W/m² | - |
| 1777816278 | 10° C | 54% | 1014.6 hPa | 0 mm | - | 517 W/m² | - |
| 1777815976 | 9.44° C | 56% | 1014.6 hPa | 0 mm | - | 485 W/m² | - |
| 1777815673 | 9.44° C | 57% | 1014.6 hPa | 0 mm | - | 442 W/m² | - |
| 1777815370 | 9.44° C | 55% | 1014.7 hPa | 0 mm | - | 399 W/m² | - |
| 1777815067 | 9.44° C | 58% | 1014.7 hPa | 0 mm | - | 387 W/m² | - |
| 1777814763 | 8.89° C | 56% | 1014.8 hPa | 0 mm | - | 361 W/m² | - |
| 1777814460 | 8.89° C | 58% | 1014.8 hPa | 0 mm | - | 329 W/m² | - |
| 1777814157 | 8.89° C | 58% | 1014.8 hPa | 0 mm | - | 301 W/m² | - |
| 1777813854 | 8.89° C | 57% | 1014.6 hPa | 0 mm | - | 292 W/m² | - |
| 1777813551 | 8.89° C | 59% | 1014.9 hPa | 0 mm | - | 275 W/m² | - |
| 1777813249 | 8.33° C | 58% | 1014.8 hPa | 0 mm | - | 271 W/m² | - |
| 1777812947 | 8.33° C | 58% | 1014.7 hPa | 0 mm | - | 233 W/m² | - |
| 1777812644 | 8.33° C | 59% | 1015 hPa | 0 mm | - | 245 W/m² | - |
| 1777812340 | 7.78° C | 59% | 1014.7 hPa | 0 mm | - | 233 W/m² | - |
| 1777812039 | 7.78° C | 60% | 1014.7 hPa | 0 mm | - | 211 W/m² | - |
| 1777811737 | 7.22° C | 62% | 1014.9 hPa | 0 mm | - | 152 W/m² | - |
| 1777811433 | 7.22° C | 63% | 1014.8 hPa | 0 mm | - | 193 W/m² | - |
| 1777811129 | 6.67° C | 63% | 1014.9 hPa | 0 mm | - | 178 W/m² | - |
| 1777810827 | 6.67° C | 65% | 1015 hPa | 0 mm | - | 158 W/m² | - |
| 1777810524 | 6.11° C | 65% | 1014.8 hPa | 0 mm | - | 148 W/m² | - |
| 1777810220 | 6.11° C | 64% | 1015 hPa | 0 mm | - | 133 W/m² | - |
| 1777809916 | 5.56° C | 65% | 1014.8 hPa | 0 mm | - | 125 W/m² | - |
| 1777809615 | 5.56° C | 68% | 1015.1 hPa | 0 mm | - | 122 W/m² | - |
* Rain latest hour (hover to see other rain measurements)
** Current wind speed in m/s (hover to see current wind gust speed)